World > North America > United States > Texas

Ratibor, Texas Regional Weather

Lat: 31.09N, Lon: 97.21W
Wx Zone: TXZ158Web Search
Ratibor Weather Warning NWS WEATHER ALERT FOR THE RATIBOR, TX AREA - Issued: 648 PM CDT Tue Apr 13 2021 Ratibor Weather Warning  

Helpful Tip: You can add this page to Bookmarks by pressing the Ctrl key & d key at the same time. Mac users press command & d.

Feedback


°F Click to change Ratibor hourly weather to Imperial units.Click to change Ratibor hourly weather to Metric units. °C
Ratibor Weather Map
UTC Time: 4/14/2021, 04:21
Your Time:

Ratibor, TX Regional Weather

Expires:202104140500;;520470
ASUS44 KFWD 140415
RWRTX 
NORTH TEXAS HOURLY WEATHER ROUNDUP
NATIONAL WEATHER SERVICE FORT WORTH TX
1100 PM CDT TUE APR 13 2021

NOTE: "FAIR" INDICATES FEW OR NO CLOUDS BELOW 12,000 FEET WITH NO
SIGNIFICANT WEATHER AND/OR OBSTRUCTIONS TO VISIBILITY.


TXZ143>147-156>162-174-175-140500-
CENTRAL TEXAS
  
CITY           SKY/WX    TMP DP  RH WIND       PRES   REMARKS
WACO           CLOUDY    71  64  78 NW6       29.94S                  
WACO-TSTC      MOCLDY    72  61  68 N5        29.94S                  
WACO-MCGREGOR  CLOUDY    72  60  66 NW3       29.95S                  
HILLSBORO      CLOUDY    73  59  62 N5        29.95S                  
CORSICANA      MOCLDY    74  59  59 N5        29.93F                  
MEXIA          CLOUDY    74  60  63 NW7       29.92F                  
HEARNE         CLOUDY    74  66  75 CALM      29.95R                  
CAMERON        CLOUDY    73  63  69 CALM      29.93S                  
TEMPLE         CLOUDY    72  61  68 NW3       29.95S                  
KILLEEN        CLOUDY    70  58  64 N7        29.95R                  
KILLEEN-SKYLRK MOCLDY    72  58  61 N5        29.96S                  
FORT HOOD      MOCLDY    72  57  60 N6        29.95F                  
GATESVILLE     MOCLDY    72  57  60 CALM      29.98S                  
HAMILTON       CLOUDY    69  57  65 CALM      29.99F                  
LAMPASAS       FAIR      70  56  62 NE5       29.95F                  
$$


SKY/WX - Weather  TMP - Temperature  DP - Dew Point  RH - Relative Humidity
WIND - Wind Direction/Speed PRES - Barometric Pressure VSB - Visibility
WCI - Wind Chill Index E13G22 Wind - East Wind 13 mph/Gusts of 22 mph